Regional Weather Roundup
Issued by NWS

Home | Current Version | Previous Version | Graphics & Text | Print | Product List | Glossary On
Versions: 1 2 3 4 5 6 7 8 9 10 11 12 13 14 15 16 17 18 19 20 21 22 23 24 25 26 27 28 29 30 31 32 33 34 35 36 37 38 39 40 41 42 43 44 45 46 47 48 49 50
000
ASUS43 KFSD 210602
RWRSD

WEATHER ROUNDUP FOR SOUTH DAKOTA
NATIONAL WEATHER SERVICE SIOUX FALLS SD
1200 AM CST TUE NOV 21 2017

NOTE: "FAIR" INDICATES FEW OR NO CLOUDS BELOW 12,000 FEET WITH NO
SIGNIFICANT WEATHER AND/OR OBSTRUCTIONS TO VISIBILITY.


SDZ001>005-009-010-012>017-210700-
NORTHWEST AND NORTH CENTRAL SOUTH DAKOTA

CITY           SKY/WX    TMP DP  RH WIND       PRES   REMARKS
BUFFALO          N/A     30  24  78 NW18      29.85R WCI  18
FAITH            N/A     34  18  52 NW22G30   29.86R WCI  22
MOBRIDGE       CLOUDY    37  14  38 N24G38    29.79R
$$

SDZ012>016-024>037-041>051-057-063-072>074-210700-
SOUTHWEST AND SOUTH CENTRAL SOUTH DAKOTA

CITY           SKY/WX    TMP DP  RH WIND       PRES   REMARKS
RAPID CTY ARPT CLOUDY    37  26  64 N15       29.86R
PIERRE         CLOUDY    40  23  50 N17       29.81R
CUSTER         CLOUDY    35  21  56 N6        29.81R
ELLSWORTH AFB  CLOUDY    36  28  73 N24       29.86R
PHILIP         CLOUDY    40  27  59 N13       29.85R
PINE RIDGE     PTCLDY    31  22  69 VRB3      29.79R
SPEARFISH      LGT SNOW  32  32 100 N8        29.89R WCI  25
WINNER         CLOUDY    44  27  51 N15       29.82R
$$

SDZ004>011-016>023-039-040-210700-
NORTHEAST SOUTH DAKOTA

CITY           SKY/WX    TMP DP  RH WIND       PRES   REMARKS
ABERDEEN       MOCLDY    34  17  50 NW15      29.77R WCI  24
WATERTOWN      MOCLDY    32  18  56 NW16G24   29.71R WCI  21
BROOKINGS      CLOUDY    35  20  54 MISG        N/A
SISSETON         N/A     31  17  56 NW28G38   29.68R WCI  17
$$

SDZ017-020-022-023-036>040-048>070-210700-
SOUTHEAST SOUTH DAKOTA

CITY           SKY/WX    TMP DP  RH WIND       PRES   REMARKS
SIOUX FALLS    CLOUDY    40  24  53 N17G24    29.73R
HURON          CLOUDY    38  23  55 N13       29.77R
CHAMBERLAIN    CLOUDY    43  28  55 N10       29.83R
MITCHELL       CLOUDY    41  24  51 N15       29.80R
YANKTON        CLOUDY    43  25  49 NW16      29.75R
$$

ABBREVIATIONS USED IN REMARKS
   TC - TEMPERATURE IN CELSIUS
  WCI - WIND CHILL INDEX
   HX - HEAT INDEX
  VSB - VISIBILITY





USA.gov is the U.S. government's official web portal to all federal, state and local government web resources and services.